Regional Weather Roundup
Issued by NWS Jackson, KY

Home | Current Version | Previous Version | Graphics & Text | Print | Product List | Glossary On
Versions: 1 2 3 4 5 6 7 8 9 10 11 12 13 14 15 16 17 18 19 20 21 22 23 24 25 26 27 28 29 30 31 32 33 34 35 36 37 38 39 40 41 42 43 44 45 46 47 48 49 50
000
ASUS43 KJKL 302110
RWRJKL

EAST KENTUCKY HOURLY WEATHER ROUNDUP
NATIONAL WEATHER SERVICE JACKSON KY
500 PM EDT THU JUL 30 2015

NOTE: "FAIR" INDICATES FEW OR NO CLOUDS BELOW 12,000 FEET WITH
NO SIGNIFICANT WEATHER AND/OR OBSTRUCTIONS TO VISIBILITY.

* THESE REPORTS ARE NOT UNDER NWS QUALITY CONTROL AND MAY NOT
  REPORT WEATHER SUCH AS PRECIPITATION AND FOG.

KYZ079-080-083-085-087-088-110-112-115-119-120-302200
...EASTERN KENTUCKY...

CITY           SKY/WX    TMP DP  RH WIND       PRES   REMARKS
JACKSON        SUNNY     84  62  47 VRB7      30.05F
LONDON         SUNNY     86  60  41 NW7       30.06F
SOMERSET*      SUNNY     82  59  44 N8        30.07F
MONTICELLO*    SUNNY     86  68  54 NW9       30.09F
MIDDLESBORO*   MOSUNNY   86  68  54 N7        30.02F
HAZARD APT*    MOCLDY    84  64  51 NW3       30.04F
BLACK MTN*       N/A     73  66  78 N6          N/A
PIKEVILLE APT* MOSUNNY   82  64  54 NW12      30.04F
BIG SANDY*     CLEAR     84  63  48 NW6       30.03F
MOREHEAD APT*  CLEAR     84  59  42 NW14      30.07S
$$

KYZ035-036-041-042-044-050-067-078-099-302200
...CENTRAL KENTUCKY...

CITY           SKY/WX    TMP DP  RH WIND       PRES   REMARKS
MT STERLING*   SUNNY     84  59  42 N9        30.07F
FLEMING/MASON* SUNNY    N/A N/A N/A NW10G18   30.05F
DANVILLE*      SUNNY     84  59  42 NW9G16    30.08F
RICHMOND*      SUNNY     84  59  42 NW9       30.06F
LEXINGTON      SUNNY     84  61  45 NW12      30.07F
FRANKFORT      SUNNY     84  58  40 VRB5      30.06F
$$

KYZ091>093-OHZ055-061-077-WVZ005-015-034-035-042-302200
...SOUTHERN OHIO/WEST VIRGINIA...

CITY           SKY/WX    TMP DP  RH WIND       PRES   REMARKS
COVINGTON      MOSUNNY   84  50  30 NW14G21   30.06F
COLUMBUS       MOSUNNY   84  58  40 W13G21    30.00F
DAYTON         MOSUNNY   83  58  42 W14       30.05F
WILMINGTON     SUNNY     83  55  38 NW10      30.04F
HUNTINGTON     SUNNY     86  59  39 NW10      30.00F
CHARLESTON     MOSUNNY   85  61  44 W7G17     29.99F
PINEVILLE*     MOSUNNY   83  70  63 MISG      30.08S
BECKLEY        MOSUNNY   80  63  55 NW10      30.06F
BLUEFIELD      MOSUNNY   83  67  58 NW5       30.08F
$$

VAZ002-007-008-TNZ017-027-036-066-071-302200
...SOUTHWEST VIRGINIA/EAST TENNESSEE...

CITY           SKY/WX    TMP DP  RH WIND       PRES   REMARKS
WISE*          MOSUNNY   84  64  51 W10       30.11F
ABINGDON*      MOSUNNY   85  68  56 N8        30.03F
BRISTOL        MOSUNNY   88  70  55 VRB7      29.99F HX  93
KNOXVILLE      PTSUNNY   89  70  53 NW9       29.98F HX  94
OAK RIDGE      MOSUNNY   93  67  42 VRB5      30.01F HX  96
CROSSVILLE     SUNNY     85  62  46 N12       30.09F
NASHVILLE      MOSUNNY   89  62  40 N9G23     30.06F
$$

...KEY TO REMARKS...
VSB - VISIBILITY IN MILES
WCI - WIND CHILL INDEX
HX  - HEAT INDEX

$$


USA.gov is the U.S. government's official web portal to all federal, state and local government web resources and services.